Regional Weather Roundup
Issued by NWS Kansas City/Pleasant Hill, MO

Home | Current Version | Previous Version | Graphics & Text | Print | Product List | Glossary Off
Versions: 1 2 3 4 5 6 7 8 9 10 11 12 13 14 15 16 17 18 19 20 21 22 23 24 25 26 27 28 29 30 31 32 33 34 35 36 37 38 39 40 41 42 43 44 45 46 47 48 49 50

000
ASUS43 KEAX 101410
RWREAX

WEATHER ROUNDUP FOR EASTERN KANSAS AND NORTHWEST MISSOURI
NATIONAL WEATHER SERVICE KANSAS CITY/PLEASANT HILL MO
800 AM CST WED FEB 10 2016

KSZ040-057-103>105-MOZ028-029-037-043-101500-
...KANSAS CITY METROPOLITAN AREA...

CITY           SKY/WX    TMP DP  RH WIND       PRES   REMARKS
K.C. INTL      CLOUDY    25  15  66 S10       30.10F WCI  15
K.C. DOWNTOWN  CLOUDY    29  14  53 S10       30.13F WCI  20
LEES SUMMIT    CLOUDY    26  14  60 SW10      30.13F WCI  16
OLATHE - IXD   CLOUDY    24  14  65 S10       30.14F WCI  14
OLATHE - OJC   CLOUDY    23  14  68 S7        30.13F WCI  15
LAWRENCE       PTCLDY    24  15  68 S7        30.13F WCI  16

$$

MOZ001>008-011>017-020>025-030>033-038>040-044>046-053-054-101500-
...NORTHERN AND CENTRAL MISSOURI...

CITY           SKY/WX    TMP DP  RH WIND       PRES   REMARKS
ST. JOSEPH     CLOUDY    26  16  65 S7        30.11F WCI  18
MOSBY          FLURRIES  27  16  63 S5        30.14F WCI  21
WARRENSBURG    CLOUDY    25  16  68 S3        30.16F
WHITEMAN AFB   CLOUDY    23  15  73 SW6       30.15F WCI  16
CLINTON          N/A     27  18  69 SW5       30.18S WCI  21
SEDALIA        CLOUDY    22  13  68 SW6       30.17F WCI  14
WARSAW         NOT AVBL
CHILLICOTHE      N/A     22  16  78 CALM      30.15F
KIRKSVILLE     CLOUDY    16   8  71 W3        30.14S

$$

MOZ041-047>049-056>058-063>065-088>090-097-101500-
...EASTERN AND SOUTHERN MISSOURI...

CITY           SKY/WX    TMP DP  RH WIND       PRES   REMARKS
ST. LOUIS INTL PTSUNNY   17   6  62 NW14      30.18R WCI   3
SPIRIT OF STL  MOSUNNY   16   9  74 W7        30.19R WCI   6
COLUMBIA       CLOUDY    17  11  77 CALM      30.15F
JEFFERSON CITY PTCLDY    16  10  77 SE3       30.20S
ROLLA          CLEAR     16   9  74 SW6       30.13S WCI   7
OSAGE BEACH    CLOUDY    19   9  63 SW5       30.18R WCI  13
SPRINGFIELD    CLEAR     22  10  60 W3        30.19R
BRANSON        PTCLDY    21   9  58 SW6       30.21F WCI  14
JOPLIN         MOCLDY    24  12  60 S12       30.18F WCI  13
WEST PLAINS    CLEAR     20   8  60 SW7       30.18R WCI  11

$$

IAZ060-094-KSZ022-034>040-054-083-096-NEZ052-066-093-101500-
...KANSAS...SOUTHEAST NEBRASKA AND IOWA...

CITY           SKY/WX    TMP DP  RH WIND       PRES   REMARKS
TOPEKA         CLEAR     25  14  63 S5        30.11F WCI  19
MANHATTAN      CLEAR     28  15  58 SW13      30.06F WCI  17
EMPORIA        CLEAR     25  11  55 S22       30.08F WCI  10
CHANUTE        CLEAR     24  13  62 S16       30.16F WCI  11
WICHITA        CLEAR     25  15  66 S10       30.13F WCI  15
OMAHA          CLOUDY    26  19  74 S13       30.00F WCI  15
LINCOLN        PTCLDY    27  17  66 S12       29.97F WCI  17
FALLS CITY     CLOUDY    27  14  58 S9        30.05F WCI  18
LAMONI         LGT SNOW  20  15  81 CALM      30.08F
DES MOINES     LGT SNOW  16   9  74 CALM      30.10S

$$




USA.gov is the U.S. government's official web portal to all federal, state and local government web resources and services.